Regional Weather Roundup
Issued by NWS Wakefield, VA

Home | Current Version | Previous Version | Graphics & Text | Print | Product List | Glossary On
Versions: 1 2 3 4 5 6 7 8 9 10 11 12 13 14 15 16 17 18 19 20 21 22 23 24 25 26 27 28 29 30 31 32 33 34 35 36 37 38 39 40 41 42 43 44 45 46 47 48 49 50
000
ASUS41 KAKQ 020815
RWRAKQ

REGIONAL WEATHER ROUNDUP
NATIONAL WEATHER SERVICE WAKEFIELD VA
400 AM EDT SUN AUG 02 2015

Note: "fair" indicates few or no clouds below 12,000 feet with no
significant weather and/or obstructions to visibility. * = Denotes
station may not report precipitation (e.g., rain,snow,etc.),
thunder or fog.

VAZ042-051-052>054-056-020900-
NORTHERN VIRGINIA

CITY           SKY/WX    TMP DP  RH WIND       PRES   REMARKS
WASH NATIONAL  MOCLDY    77  59  53 NW6       29.92S
DULLES         MOCLDY    64  59  83 CALM      29.93S
FORT BELVOIR   NOT AVBL
QUANTICO       NOT AVBL
FREDERICKSBRG* MOCLDY    69  64  82 CALM      29.91S
STAFFORD*      PTCLDY    62  60  94 CALM      29.96S
WARRENTON      FOG       60  60 100 CALM      29.93S VSB 3/4
CULPEPER*      CLEAR     62  62  99 CALM      29.94S
MANASSAS*      CLEAR     64  63  94 CALM      29.93S
LEESBURG*      PTCLDY    64  63  94 CALM      29.94S
WINCHESTER     CLEAR     63  55  77 CALM      29.95S
FRONT ROYAL*   FAIR      63  55  77 CALM      29.95S
LURAY*         FAIR      61  61 100 CALM      29.97S
$$

VAZ048-049-060>072-079>083-020900-
CENTRAL AND SOUTH CENTRAL VIRGINIA

CITY           SKY/WX    TMP DP  RH WIND       PRES   REMARKS
RICHMOND       PTCLDY    72  61  68 N6        29.91S
CHESTERFIELD*  FAIR      68  55  64 CALM      29.93S
PETERSBURG*    PTCLDY    69  69  99 CALM      29.92S
HANOVER        PTCLDY    67  63  87 W5        29.93S
TAPPAHANNOCK*  CLEAR     71  64  78 CALM      29.92S
QUINTON*       FAIR      72  63  72 N3        29.90S
CHARLOTTSVILLE CLEAR     66  59  78 W5        29.94S
GORDONSVILLE*  FAIR      61  61 100 CALM      29.93S
ORANGE*        CLEAR     63  61  94 CALM      29.95S
LOUISA*        PTCLDY    61  59  94 CALM      29.93R
BUMPASS*       FAIR      65  64  94 CALM      29.92S
FARMVILLE*     CLEAR     62  62 100 CALM      29.93R
CREWE*         FAIR     N/A N/A N/A CALM      29.93S
FORT PICKETT*  FAIR      68  59  73 N6        29.93S
CHASE CITY*    FAIR      66  65  98 CALM      29.94S
CLARKSVILLE*   FAIR      70  61  73 CALM      29.94R
SOUTH HILL*    PTCLDY    67  60  77 N3        29.99S
LAWRENCEVILLE* FAIR      72  63  73 N5        29.91S
EMPORIA*       CLEAR     68  63  83 NW3       29.92S
$$

VAZ088>098-020900-
SOUTHEAST VIRGINIA

CITY           SKY/WX    TMP DP  RH WIND       PRES   REMARKS
NORFOLK        CLEAR     77  73  87 W6        29.88R
VIRGINIA BEACH CLEAR     77  73  87 SW7       29.87S
NORFOLK NAVAL  PTCLDY    75  73  93 SW5       29.89S
WEST POINT*    CLEAR     75  69  80 CALM      29.91R
SALUDA*        FAIR      77  66  69 N10G18    29.88S
NEWPORT NEWS   PTCLDY    75  70  84 CALM      29.88S
LANGLEY AFB    PTCLDY    75  72  92 W5        29.88S
FORT EUSTIS    CLEAR     74  74 100 NW6       29.87S
WILLIAMSBURG*  CLEAR     73  72  94 N3        29.90S
HR EXEC AP*    FAIR      72  68  88 CALM      29.91R
FRANKLIN*      CLEAR     68  67  96 CALM      29.90R
WAKEFIELD      CLEAR     67  64  90 CALM      29.90R
$$

VAZ020-022-025-037-045-020900-
WEST CENTRAL AND SOUTHWEST VIRGINIA

CITY           SKY/WX    TMP DP  RH WIND       PRES   REMARKS
STAUNTON*      CLEAR     58  55  89 CALM      30.01R
WAYNESBORO*    FAIR      56  55  95 SW5       30.00R
HOT SPRINGS VA CLEAR     61  52  71 N8        30.08S
LYNCHBURG      CLEAR     58  56  93 CALM      29.98R
DANVILLE       CLEAR     63  61  93 CALM      29.95S
SOUTH BOSTON*  FAIR      62  60  95 CALM      29.95R
MARTINSVILLE   CLEAR     59  59 100 CALM      30.00S
ROANOKE        CLEAR     62  57  83 CALM      30.02R
BLACKSBURG     CLEAR     59  58  96 CALM      30.07R
DUBLIN*          N/A     59  58  96 SE3       30.06S
MARION*        PTCLDY    59  57  95 CALM      30.09S
HILLSVILLE*    PTCLDY    63  57  81 W3        30.05S
RICHLANDS*     FAIR      60  59  97 CALM      30.08R
WISE*          PTCLDY    61  61 100 CALM      30.09S
ABINGDON*      CLEAR     63  60  91 CALM      30.05S
$$

MDZ021>025-VAZ099-100-020900-
SOUTHERN MARYLAND AND THE DELMARVA PENINSULA

CITY           SKY/WX    TMP DP  RH WIND       PRES   REMARKS
PATUXENT RIVER PTCLDY    75  61  61 NW8       29.89S
BAY BRIDGE APT   N/A     75  64  69 NW3       29.90S
LEONARDTOWN    PTCLDY    70  61  73 CALM      29.92S
DOVER          CLEAR     70  70 100 W2        29.87S
GEORGETOWN     CLEAR     69  67  93 NW5       29.89S
EASTON         PTCLDY    71  71 100 CALM      29.93S
CAMBRIDGE      CLEAR     77  68  73 N5        29.89S
SALISBURY      CLEAR     69  66  90 NW3       29.88S
OCEAN CITY     PTCLDY    67  64  90 CALM      29.88R
WALLOPS ISLAND PTCLDY    75  72  90 N5        29.87F
ACCOMACK*      CLEAR    N/A N/A N/A NW5       29.87S FOG
$$

NCZ012>017-030>032-020900-
NORTH CENTRAL AND EASTERN NORTH CAROLINA

CITY           SKY/WX    TMP DP  RH WIND       PRES   REMARKS
ROANOKE RAPIDS FAIR      64  63  94 CALM      29.91S
RALEIGH        PTCLDY    72  60  66 N3        29.93S
ELIZABETH CITY   N/A     74  74 100 SW5       29.88S FOG
AHOSKIE*       PTCLDY    66  64  93 CALM      29.91R
EDENTON*       CLEAR     77  74  91 W7        29.89S
CURRITUCK*     CLEAR     74  72  92 CALM      29.89S FOG
KILL DEVIL HLS CLEAR     78  74  88 W5        29.87F
MANTEO         CLEAR     77  75  93 NW6       29.89S
CAPE HATTERAS  PTCLDY    79  75  87 W6        29.89S
TARBORO*         N/A     68  65  92 CALM      29.91S
GOLDSBORO      CLEAR     75  74  98 W5        29.89S
WASHINGTON     CLEAR     74  72  95 CALM      29.90S
GREENVILLE     CLEAR     73  73 100 W3        29.93R
NEW BERN       CLEAR     74  71  91 SW3       29.91S
WILMINGTON     PTCLDY    75  73  93 CALM      29.90F
$$

VAZ048-020900-
ELSEWHERE

CITY           SKY/WX    TMP DP  RH WIND       PRES   REMARKS
HARRISBURG PA  CLEAR     67  59  75 NE3       29.90S
BALTIMORE      PTCLDY    68  61  78 CALM      29.91S
ANNAPOLIS      PTCLDY    71  62  73 CALM      29.90S
ANDREWS AFB    NOT AVBL
PHILADELPHIA   PTCLDY    72  59  63 NW6       29.90R
HENDERSON NC   CLEAR     69  57  65 CALM      29.94S
GREENSBORO     PTCLDY    70  56  61 CALM      29.97R
ROCKY MOUNT    CLEAR     69  64  84 CALM      29.91S
$$

VAZ100-020900-
MARINE

STATION/POSITION TIME  TEMP    WIND        PRES    WAVE   SWELL
                       AIR SEA DIR/SP/G            HT/PER HT/PER
                 (UTC) (F)     (DEG/KT/KT) (MB)    (FT/S) (FT/S)
BRANDYWINE LGT   0700   75 74  250/ 10/ 10 1012.2F
CAPE MAY NJ      0700   75 75  260/  6/  8 1011.7F
LEWES DE         0700   71 75  260/  3/  4 1011.7F
15NM E FENWICK I 0750   78 79  280/  4/  6 1012.0R   3/ 8   3/ 8
OCEAN-CITY-INLET 0700   75 73  350/  2/  3 1010.7F
WACHAPREAGUE VA  0700   78 83  250/  1/  2 1011.6S
GOOSES REEF MD   0800   80 81   10/ 10/ 12 1013.4R
COVE POINT MD    0700   80     350/ 13/ 16 1012.9S
SOLOMONS ISLAND  0700      83                N/A
BISHOPS HEAD MD  0700   78 83   20/  3/  8 1011.1S
PINEY POINT MD   0700           10/  8/  9   N/A
POTOMAC MD       0800   79 83   10/ 10/ 12 1010.8F   1
CAMBRIDGE MD     0700   78 85  360/  6/  7 1011.4R
LEWISETTA VA     0700   80 85   10/  7/ 10 1012.0S
RAPPAHANNOCK LGT 0700          260/ 10/ 11 1012.0S
STINGRAY PT      0800   81 83  360/ 16/ 19 1011.5F   1/ 2
YORK RVR RNG VA  0700   80     270/ 10/ 11 1011.0S
YORKTOWN VA      0700   78 83  240/  5/  8 1011.4R
JAMESTOWN VA     0800   76 86  330/  6/  8   N/A
DOMINION TERM VA 0700   79     280/  9/ 11 1011.5S
KIPTOPEKE VA     0700      82  240/  8/ 10   N/A
CHES BAY BRIDGE  0700   78 80  190/ 11/ 12 1011.1S
CAPE HENRY VA    0700   77     200/  8/ 11   N/A
CHESAPEAKE LGHT  0700   79     230/ 14/ 14 1012.2F
WILLOUBY STN VA  0700   79     220/  8/  9 1012.5F
CAPE HENRY BUOY  0728      80                N/A     2/13   2/13
1ST LANDING BUOY 0800      78              1011.5R   1
CAPE CHARLES BUO 0726      79                N/A     2/12   2/12
OFFSHORE WE BUOY 0711      82                N/A     3/12   2/12
64NM E OF VA BCH 0750   81 81  260/ 10/ 12 1011.4F   3/11   3/11
DUCK PIER NC     0700   80 76  240/  9/ 12 1011.1F
44100 DUCK FRF   0724      81                N/A     2/13   2/13
44056 DUCK FRF   0711      78                N/A     2/11   2/11
OREGON INLET NC  0700   79 80  250/  9/ 12 1011.8F
HATTERAS NC      0700   79 81  240/  6/  8 1011.9F
DIAMOND SHLS NC  0750   81 84  270/ 14/ 16 1012.5R   4/ 8   3/ 8


USA.gov is the U.S. government's official web portal to all federal, state and local government web resources and services.